Regional Weather Roundup
Issued by NWS Kansas City/Pleasant Hill, MO

Home | Current Version | Previous Version | Text Only | Print | Product List | Glossary On
Versions: 1 2 3 4 5 6 7 8 9 10 11 12 13 14 15 16 17 18 19 20 21 22 23 24 25 26 27 28 29 30 31 32 33 34 35 36 37 38 39 40 41 42 43 44 45 46 47 48 49 50
000
ASUS43 KEAX 210911
RWREAX

WEATHER ROUNDUP FOR EASTERN KANSAS AND NORTHWEST MISSOURI
NATIONAL WEATHER SERVICE KANSAS CITY/PLEASANT HILL MO
300 AM CST SUN DEC 21 2014

KSZ040-057-103>105-MOZ028-029-037-043-211000-
...KANSAS CITY METROPOLITAN AREA...

CITY           SKY/WX    TMP DP  RH WIND       PRES   REMARKS
K.C. INTL      PTCLDY    35  32  88 S8        30.09R FOG     WCI  29
K.C. DOWNTOWN  MOCLDY    36  32  85 S7        30.10S WCI  30
LEES SUMMIT    MOCLDY    36  33  89 SW7       30.10S WCI  30
OLATHE - IXD   MOCLDY    32  32 100 S5        30.10R FOG     WCI  27
OLATHE - OJC   CLOUDY    35  33  92 S8        30.09R FOG     WCI  29
LAWRENCE       CLOUDY    36  32  85 S7        30.10R WCI  30

$$

MOZ001>008-011>017-020>025-030>033-038>040-044>046-053-054-211000-
...NORTHERN AND CENTRAL MISSOURI...

CITY           SKY/WX    TMP DP  RH WIND       PRES   REMARKS
ST. JOSEPH     MOCLDY    33  31  92 S8        30.09S WCI  26
MOSBY          MOSUNNY   34  32  93 SE3       30.11S
WARRENSBURG    CLOUDY    39  34  81 S8        30.11F WCI  34
WHITEMAN AFB   CLOUDY    41  36  83 S9        30.11F WCI  35
CLINTON        CLOUDY    43  36  75 S9        30.13S
SEDALIA        CLOUDY    42  35  76 SW6       30.13S
WARSAW         NOT AVBL
MARSHALL       CLOUDY    43  37  81 S6        30.15R
CHILLICOTHE      N/A     37  33  85 S5        30.13S WCI  33
MOBERLY        CLOUDY    39  34  81 CALM      30.16S
KIRKSVILLE     CLOUDY    38  36  92 S10       30.14S WCI  31

$$

MOZ041-047>049-056>058-063>065-088>090-097-211000-
...EASTERN AND SOUTHERN MISSOURI...

CITY           SKY/WX    TMP DP  RH WIND       PRES   REMARKS
ST. LOUIS INTL CLOUDY    42  33  70 SE8       30.22F
SPIRIT OF STL  CLOUDY    41  34  76 SE3       30.20F
COLUMBIA       CLOUDY    40  35  83 SE6       30.14F
JEFFERSON CITY CLOUDY    42  35  76 E5        30.16F
MEXICO         CLOUDY    41  39  93 S5        30.16F
HANNIBAL       CLOUDY    39  34  81 S3        30.17F
ROLLA          CLOUDY    39  33  79 SE9       30.14F WCI  33
LEBANON        CLOUDY    41  36  81 S8        30.14F
OSAGE BEACH    CLOUDY    43  34  70 S7        30.14F
SPRINGFIELD    CLOUDY    41  35  79 SE9       30.13F
BRANSON        CLOUDY    39  36  87 SE3       30.17S
NEVADA         CLOUDY    41  37  87 S9        30.13S
JOPLIN         CLOUDY    43  38  82 S9        30.12F
WEST PLAINS    CLOUDY    38  34  85 SE6       30.18F WCI  33

$$

IAZ060-094-KSZ022-034>040-054-083-096-NEZ052-066-093-211000-
...KANSAS...SOUTHEAST NEBRASKA AND IOWA...

CITY           SKY/WX    TMP DP  RH WIND       PRES   REMARKS
TOPEKA         CLOUDY   N/A N/A N/A S7        30.08F
MANHATTAN      PTCLDY    41  36  82 S7        30.02F
EMPORIA        CLOUDY    37  35  92 S8        30.07R WCI  31
CHANUTE        CLOUDY    40  37  89 S13       30.10F WCI  32
WICHITA        CLOUDY    42  37  82 S14       30.04F WCI  35
OMAHA          CLOUDY    36  35  96 S12       29.99S FOG     WCI  28
LINCOLN        CLOUDY    37  35  92 S9        29.96F WCI  30
FALLS CITY     CLOUDY    35  33  92 S8        30.03F WCI  29
LAMONI         CLOUDY    36  34  92 S14       30.07F WCI  27
DES MOINES     CLOUDY    39  35  86 S10       30.05F WCI  32

$$



USA.gov is the U.S. government's official web portal to all federal, state and local government web resources and services.